Preview of NWS' New Version of Forecast
This preview is not operational and should not be used for support decisions.

Regional Weather Roundup (RWR)

Issued by National Weather Service (NWS)

                            
000
ASUS43 KTOP 230059
RWRKS 

WEATHER ROUNDUP FOR KANSAS
NATIONAL WEATHER SERVICE GOODLAND KS
800 PM CDT FRI MAR 22 2019

NOTE:  "FAIR" INDICATES FEW OR NO CLOUDS BELOW 12,000 FEET WITH NO
SIGNIFICANT WEATHER AND/OR OBSTRUCTIONS TO VISIBILITY.

KSZ001>006-013>018-027>032-041>047-230200-
NORTHWEST KANSAS
  
CITY           SKY/WX    TMP DP  RH WIND       PRES   REMARKS
GOODLAND       LGT RAIN  44  43  96 SE10      29.98R                  
HAYS           CLOUDY    57  37  47 SE7       30.03R                  
HILL CITY      CLOUDY    54  39  57 E8        30.03R                  
RUSSELL        CLOUDY    57  37  47 E9        30.00S                  
$$

KSZ061>065-074>080-084>089-230200-
SOUTHWEST KANSAS
  
CITY           SKY/WX    TMP DP  RH WIND       PRES   REMARKS
DODGE CITY     LGT RAIN  55  40  56 E9        29.97R                  
GARDEN CITY    LGT RAIN  47  45  93 E15       29.94F                  
GREAT BEND     CLOUDY    58  37  45 SE13      30.01R                  
LIBERAL        TSTM      49  46  90 W36G47    29.95R FOG              
$$

KSZ066>073-081>083-090>101-230200-
SOUTHEAST KANSAS
  
CITY           SKY/WX    TMP DP  RH WIND       PRES   REMARKS
CHANUTE        CLOUDY    59  35  40 S7        30.10R                  
COFFEYVILLE    CLOUDY    60  32  34 E5        30.09R                  
HUTCHINSON     CLOUDY    58  34  40 E8        30.01F                  
MEDICINE LODGE   N/A     60  36  40 SE9       30.01R                  
NEWTON         MOCLDY    57  33  40 SE9       30.04F                  
PARSONS        CLOUDY    57  35  43 CALM      30.11R                  
WICHITA INTL   CLOUDY    59  29  31 SE7       30.02F                  
WICHITA JABRA  CLOUDY    60  31  33 SE8       30.04F                  
WINFIELD       CLOUDY    62  28  27 E9        30.04F                  
$$

KSZ007>012-019>026-033>040-048>060-102>105-230200-
NORTHEAST KANSAS
  
CITY           SKY/WX    TMP DP  RH WIND       PRES   REMARKS
CONCORDIA      CLOUDY    56  36  47 E7        30.05F                  
EMPORIA        CLOUDY    56  33  42 E7        30.07F                  
LAWRENCE       MOCLDY    55  35  47 NE3       30.09S                  
MANHATTAN      CLOUDY    60  34  37 E7        30.07S                  
OLATHE IND     CLOUDY    60  32  34 E5        30.10S                  
OLATHE EXE     CLOUDY    60  30  32 E3        30.09F                  
SALINA         CLOUDY    61  32  33 E9        30.03F                  
TOPEKA BILLARD CLOUDY    59  35  40 NE3       30.09R                  
TOPEKA FORBES  MOCLDY    58  33  39 E5        30.09R                  
$$